User: anonymous   Login
Location: Unspecified
(0.0000°N, 0.0000°E)
Time: 17:02:16
(UTC+00:00)
Language:

Tiros 9 - Orbit

View from above orbital plane
View from above orbital plane
View from above satellite
View from above satellite

Ground track
Ground track

The orbit data is extracted from the following two-line orbital elements,

1   978U 65004A   19016.11516337  .00000048  00000-0  68057-4 0  9995
2   978  96.3926   6.8603 1159615 130.8983 239.8541 12.10878157384124
Epoch (UTC): 16 January 2019 02:45:50
Eccentricity: 0.1159615
inclination: 96.3926°
perigee height: 703 km
apogee height: 2561 km
right ascension of ascending node: 6.8603°
argument of perigee: 130.8983°
revolutions per day: 12.10878157
mean anomaly at epoch: 239.8541°
orbit number at epoch: 38412

The dashed part of the orbit path shows where the satellite is in the earth's shadow,  

DLR